Location: Burla
(50.9568°N, 10.4983°E)
Time: 01:14:40
(UTC+00:00)

Cosmos 1833 - Pass Details

Date: 18 January 2026
Orbit: 831 x 867 km, 70.9° (Epoch: 6 February)

Event Time Altitude Azimuth Distance (km) Brightness Sun altitude
Exits shadow 06:21:32 - 330° (NNW) 3,205 6.7 -7.9°
Reaches altitude 10° 06:23:20 10° 331° (NNW) 2,522 6.2 -7.6°
Maximum altitude 06:29:10 84° 60° (ENE) 878 4.4 -6.8°
Drops below altitude 10° 06:34:57 10° 149° (SSE) 2,498 7.7 -5.9°
Sets 06:37:23 0° 150° (SSE) 3,427 8.4 -5.6°
